This demonstration page uses our WeatherBlox Daily Observations layout. Learn more.

Left ArrowRight Arrow

47.50024, -111.30081

Hourly Observations for April 10, 2020

Temp ( °F °C ) Dew Point ( °F °C ) Humidity (%) Winds ( mph kmh ) Pressure ( in mb ) Visibility ( mi km ) Precip ( " mm )
12:53 am 00:53 Clear 39 3.9 25 -3.9 57 57 SSW 7 11 29.89 1012 10 16 0.00 0.00
1:53 am 01:53 Clear 40 4.4 25 -3.9 55 55 SSW 10 17 29.86 1011 10 16 0.00 0.00
2:53 am 02:53 Clear 39 3.9 25 -3.9 57 57 SSW 12 19 29.85 1011 10 16 0.00 0.00
3:53 am 03:53 Clear 37 2.8 25 -3.9 62 62 SW 9 15 29.85 1011 10 16 0.00 0.00
4:53 am 04:53 Clear 38 3.3 25 -3.9 60 60 SSW 9 15 29.83 1010 10 16 0.00 0.00
5:53 am 05:53 Clear 40 4.4 26 -3.3 58 58 SSW 8 13 29.83 1010 10 16 0.00 0.00
6:53 am 06:53 Sunny 39 3.9 26 -3.3 60 60 SW 10 17 29.85 1011 10 16 0.00 0.00
7:53 am 07:53 Sunny 43 6.1 27 -2.8 53 53 SSW 9 15 29.86 1011 10 16 0.00 0.00
8:53 am 08:53 Partly Cloudy 51 10.6 27 -2.8 39 39 SSW 10 17 29.84 1011 10 16 0.00 0.00
9:53 am 09:53 Cloudy 53 11.7 26 -3.3 35 35 SW 9 15 29.84 1011 10 16 0.00 0.00
10:53 am 10:53 Cloudy 58 14.4 25 -3.9 28 28 WSW 12 19 29.84 1010 10 16 0.00 0.00
11:53 am 11:53 Partly Cloudy 61 16.1 24 -4.4 24 24 NW 13 20 29.85 1011 10 16 0.00 0.00
12:53 pm 12:53 Cloudy 62 16.7 25 -3.9 24 24 NNW 9 15 29.82 1010 10 16 0.00 0.00
1:53 pm 13:53 Cloudy 63 17.2 29 -1.7 28 28 N 22 35 29.81 1009 10 16 0.00 0.00
2:53 pm 14:53 Partly Cloudy 59 15 27 -2.8 29 29 N 21 33 29.83 1010 10 16 0.00 0.00
3:53 pm 15:53 Cloudy 55 12.8 27 -2.8 34 34 NNE 14 22 29.86 1011 10 16 0.00 0.00
4:53 pm 16:53 Cloudy 53 11.7 26 -3.3 35 35 N 14 22 29.88 1012 10 16 0.00 0.00
5:53 pm 17:53 Cloudy 51 10.6 26 -3.3 38 38 NNE 9 15 29.87 1012 10 16 0.00 0.00
6:53 pm 18:53 Cloudy 49 9.4 29 -1.7 46 46 NNE 8 13 29.88 1012 10 16 0.00 0.00
7:53 pm 19:53 Cloudy 47 8.3 29 -1.7 50 50 NNE 7 11 29.86 1011 10 16 0.00 0.00
8:53 pm 20:53 Cloudy 46 7.8 30 -1.1 54 54 NNE 7 11 29.85 1011 10 16 0.00 0.00
9:53 pm 21:53 Cloudy 43 6.1 34 1.1 71 71 NE 15 24 29.87 1012 10 16 0.00 0.00
10:23 pm 22:23 Cloudy 41 5 30 -1.1 65 65 NE 16 26 29.90 1012 10 16 0.00 0.00
10:40 pm 22:40 Cloudy 40 4.4 31 -0.6 70 70 NE 15 24 29.90 1012 10 16 0.00 0.00
10:53 pm 22:53 Cloudy 40 4.4 31 -0.6 70 70 NNE 14 22 29.87 1012 10 16 0.00 0.00
11:12 pm 23:12 Cloudy 39 3.9 32 0 76 76 NNE 10 17 29.91 1013 10 16 0.00 0.00
11:31 pm 23:31 Cloudy 38 3.3 33 0.6 83 83 N 15 24 29.92 1013 10 16 0.00 0.00
11:53 pm 23:53 Cloudy with Light Rain 37 2.8 32 0 82 82 N 16 26 29.88 1012 10 16 0.00 0.00

Powered by AerisWeather